Temp_Advection
nan nan nan nan nan nan nan nan nan nan nan nan nan nan nan nan nan nan nan nan nan nan nan nan nan nan nan nan nan nan nan nan
nan 0 -0 0 0 -0 -0 -0 -0 0 0 -0 -0 0 0 -0 -0 0 0 -0 -0 -0 -0 -0 -0 -0 -0 0 0 -0 -0 nan
nan 0 -0 0 -0 -0 -0 0 0 0 0 0 -0 0 -0 -0 0 0 -0 -0 -0 -0 -0 -0 -0 0 0 0 0 0 -0 nan
nan -0 0 -0 -0 -0 0 0 0 0 0 0 0 -0 -0 -0 -0 -0 0 -0 -0 -0 -0 0 0 0 0 0 -0 0 0 nan
nan 0 0 0 0 -0 0 0 0 0 0 0 0 0 -0 0 0 0 0 0 0 -0 0 0 -0 -0 0 0 0 0 0 nan
nan 1 1 1 0 0 1 1 0 0 0 0 0 0 0 0 0 0 0 0 0 0 0 -0 -0 -0 -0 -0 0 0 0 nan
nan 0 0 0 0 1 1 0 0 0 0 0 0 -0 0 0 0 0 0 0 0 0 0 -0 -0 -0 -0 -0 0 0 0 nan
nan -0 0 1 0 1 0 0 0 0 0 0 -0 0 0 0 0 0 0 0 0 0 0 0 0 0 0 -0 -0 0 0 nan
nan -0 0 0 0 -0 -0 0 0 -0 0 0 0 0 0 0 0 -0 0 0 0 0 0 0 0 0 0 0 0 -0 -0 nan
nan 0 -0 -1 -0 -0 0 0 -0 0 0 0 0 0 0 0 -0 0 0 0 0 0 0 0 0 0 0 0 0 0 0 nan
nan 0 -0 -0 -0 0 0 0 0 0 0 0 0 0 0 -0 0 0 0 0 0 0 0 0 0 0 0 0 0 0 0 nan
nan 0 0 1 -0 0 0 0 0 0 -0 0 0 0 0 -0 0 0 0 0 0 0 0 0 0 0 0 0 0 0 0 nan
nan 1 0 -0 0 -0 -0 -0 -0 0 0 0 0 0 0 0 0 0 0 0 0 0 0 0 0 0 0 0 0 0 0 nan
nan 0 0 -0 -1 -1 -0 -0 0 -0 0 0 0 0 0 0 0 0 0 0 0 0 0 0 0 0 0 0 0 0 0 nan
nan -0 -0 -1 -2 -1 -0 -0 -0 -0 0 1 -0 0 0 0 0 0 0 0 0 0 0 0 0 0 0 0 0 0 0 nan
nan 0 0 -1 -2 -1 -0 -0 -0 0 0 -0 -0 0 0 1 0 0 0 0 0 0 0 0 0 0 0 0 0 0 0 nan
nan 0 -0 -1 -2 -1 -1 -1 -0 0 0 -0 -0 0 0 0 0 0 0 0 1 0 0 0 0 0 0 0 0 0 0 nan
nan -0 -1 -2 -0 1 0 -0 -0 -0 -0 -0 0 0 0 0 0 0 0 0 0 0 0 0 0 0 0 0 0 0 0 nan
nan nan nan nan nan nan nan nan nan nan nan nan nan nan nan nan nan nan nan nan nan nan nan nan nan nan nan nan nan nan nan nan
Wind_Speed
35 34 41 37 37 38 34 31 28 25 22 18 15 11 9 7 6 5 6 7 6 7 8 9 11 13 15 14 12 14 18 19
35 36 39 38 40 38 35 32 29 25 23 19 15 12 9 6 5 5 5 5 6 7 9 11 13 15 15 15 14 15 18 17
35 36 39 39 44 38 35 31 28 25 20 17 14 11 8 7 7 8 8 7 7 8 10 14 15 17 17 16 15 18 17 16
36 35 35 41 43 39 35 32 27 24 21 18 15 11 9 9 9 9 7 6 7 11 13 15 16 16 17 17 14 15 16 16
38 39 40 46 43 37 34 30 27 23 22 18 14 10 9 10 12 8 5 6 8 10 11 12 14 15 16 15 16 18 16 14
39 40 42 45 39 37 34 31 29 25 22 19 16 13 11 11 12 8 5 6 8 10 11 10 11 13 14 15 17 19 19 17
35 39 40 40 38 38 36 34 30 27 24 21 17 14 12 12 10 6 7 8 9 10 10 11 12 12 12 13 17 20 21 20
35 37 40 43 44 40 37 33 31 29 25 22 19 15 13 12 8 6 8 9 10 11 11 11 11 11 11 11 11 13 17 18
33 41 42 42 44 42 40 37 34 31 28 24 20 17 15 13 8 9 9 9 10 11 11 12 11 10 10 10 10 10 11 11
38 39 40 42 44 45 42 39 34 33 29 26 23 20 17 14 12 12 10 11 11 12 12 12 13 12 12 11 10 10 11 10
33 39 42 44 45 45 42 39 36 35 30 27 24 20 19 15 15 12 11 12 13 14 14 14 13 13 12 12 11 11 10 9
37 38 42 45 44 45 43 40 37 36 32 29 25 22 21 18 17 14 13 14 15 15 15 14 13 13 14 13 12 11 10 9
42 40 44 44 45 47 45 42 40 36 33 30 26 24 23 21 20 16 16 16 17 17 16 15 15 14 14 13 12 12 10 9
32 34 43 45 46 44 46 44 40 38 35 33 29 27 26 23 21 18 18 18 19 19 18 17 15 15 14 14 13 11 11 9
38 36 42 44 45 44 45 44 41 38 36 35 32 30 27 24 23 20 20 20 21 21 20 18 17 16 15 15 14 12 10 9
35 38 38 41 42 43 44 44 42 39 37 37 34 31 27 26 25 23 23 22 22 22 22 21 19 18 17 16 14 12 10 9
27 31 33 40 42 42 42 42 41 38 38 37 33 32 29 28 26 25 25 24 24 25 24 22 22 20 18 16 14 12 11 10
21 26 30 36 39 40 39 39 38 37 37 36 34 32 31 29 28 27 27 27 26 26 25 25 23 21 20 18 16 14 12 11
8 17 23 29 32 34 37 40 38 37 37 36 35 34 32 31 29 29 28 28 28 28 27 26 24 23 21 19 18 16 15 13
Wind_Direction
196 198 198 195 191 189 188 182 185 189 187 186 192 199 206 218 213 199 196 195 193 181 166 163 163 168 172 171 173 162 160 151
197 192 198 195 191 187 186 186 191 193 189 191 194 196 202 201 190 176 172 157 156 154 152 153 156 161 175 179 178 172 165 159
191 191 193 189 187 186 186 192 192 191 197 198 195 195 194 186 171 159 147 139 141 144 143 147 150 162 177 190 193 175 181 168
185 193 192 187 186 187 188 189 193 194 197 196 191 194 195 183 169 153 142 138 144 152 155 161 164 177 187 193 203 204 194 192
193 196 192 187 187 187 189 190 194 196 199 197 199 199 198 184 168 153 156 166 166 164 169 174 170 182 193 202 213 213 219 217
192 195 196 190 190 191 191 193 194 199 197 195 195 195 192 186 181 184 195 194 177 177 186 175 177 188 197 210 218 220 224 230
193 197 199 196 197 196 195 193 197 196 194 194 196 199 198 195 196 215 201 185 180 179 173 171 176 182 193 209 222 228 229 231
193 197 197 199 199 199 197 196 198 195 195 196 199 196 196 195 207 206 189 190 189 179 173 176 175 176 186 196 204 210 219 226
193 205 205 205 202 199 199 199 197 197 196 195 200 199 200 200 201 189 186 186 185 181 178 177 165 168 170 172 176 183 188 200
199 204 210 208 201 200 201 201 199 202 196 196 203 203 203 206 199 190 188 189 186 183 178 179 168 166 163 158 161 167 164 169
193 202 209 207 204 203 203 204 202 202 197 199 205 207 204 208 199 197 193 192 189 188 184 178 170 165 164 164 166 164 161 158
195 196 206 208 208 206 206 205 204 202 201 202 205 206 206 207 202 197 195 194 192 192 187 182 174 171 171 169 167 163 158 156
199 195 202 206 212 209 207 207 206 203 205 205 207 210 208 206 203 201 196 193 193 194 191 189 182 175 176 172 171 165 160 157
190 192 199 206 211 210 208 209 206 205 207 209 210 213 209 206 207 204 200 195 196 194 194 195 190 182 181 179 176 172 166 160
187 191 199 209 212 212 210 209 209 211 210 211 212 215 208 208 209 208 203 200 198 198 197 196 194 189 186 188 184 179 172 166
190 195 197 205 208 210 211 211 213 212 211 211 213 211 206 209 208 209 204 202 200 200 201 197 195 194 194 192 189 185 179 175
194 195 197 204 206 206 207 209 211 209 207 208 208 204 205 207 208 207 205 202 202 201 201 202 200 200 195 194 195 192 187 183
197 202 205 210 207 205 202 202 203 202 202 203 202 202 204 204 206 205 205 204 203 203 203 204 203 203 199 199 197 195 194 195
196 212 212 214 209 206 203 201 197 198 198 200 201 202 202 203 205 206 206 205 206 207 206 206 205 204 203 203 202 201 201 202
Height
1502 1506 1512 1517 1526 1534 1539 1543 1548 1552 1555 1557 1560 1562 1564 1566 1567 1568 1570 1571 1572 1573 1575 1576 1579 1583 1585 1587 1589 1590 1591 1593
1500 1503 1508 1499 1523 1530 1536 1540 1545 1550 1553 1555 1557 1560 1563 1565 1566 1568 1570 1571 1573 1574 1575 1577 1579 1582 1586 1588 1589 1589 1593 1594
1496 1499 1506 1511 1521 1527 1532 1538 1543 1547 1552 1555 1556 1559 1562 1564 1565 1567 1569 1571 1572 1574 1575 1577 1579 1582 1584 1587 1590 1589 1593 1595
1491 1496 1504 1511 1518 1523 1529 1534 1541 1545 1549 1553 1554 1557 1560 1563 1565 1567 1569 1570 1572 1573 1574 1576 1578 1581 1583 1586 1589 1591 1592 1594
1488 1494 1499 1507 1514 1521 1526 1532 1538 1543 1547 1550 1553 1556 1559 1562 1565 1566 1568 1570 1571 1572 1574 1576 1578 1581 1583 1585 1588 1590 1592 1594
1483 1490 1497 1503 1510 1516 1524 1530 1535 1540 1544 1548 1552 1555 1558 1561 1563 1565 1566 1568 1570 1571 1574 1574 1575 1579 1582 1585 1587 1589 1591 1594
1482 1488 1494 1500 1508 1514 1520 1526 1532 1537 1541 1546 1550 1553 1556 1560 1562 1564 1565 1567 1570 1571 1572 1574 1575 1578 1581 1583 1585 1587 1590 1592
1476 1482 1488 1494 1503 1510 1516 1522 1528 1534 1538 1543 1548 1551 1555 1559 1560 1562 1564 1567 1569 1570 1571 1573 1574 1577 1579 1581 1584 1585 1588 1590
1471 1477 1483 1491 1499 1506 1512 1517 1523 1530 1535 1540 1545 1550 1554 1556 1558 1561 1563 1565 1568 1570 1571 1573 1573 1576 1579 1581 1582 1584 1586 1588
1464 1471 1478 1486 1493 1500 1507 1513 1521 1526 1531 1536 1543 1547 1551 1554 1556 1559 1561 1564 1567 1570 1571 1574 1573 1575 1578 1580 1582 1585 1586 1588
1461 1467 1473 1480 1488 1496 1502 1510 1516 1522 1528 1534 1541 1545 1548 1551 1554 1557 1559 1562 1565 1569 1571 1573 1573 1575 1578 1581 1583 1585 1586 1587
1453 1461 1468 1477 1485 1491 1498 1506 1512 1518 1524 1530 1536 1541 1545 1548 1552 1555 1557 1561 1564 1568 1570 1572 1573 1575 1578 1580 1582 1584 1586 1587
1445 1454 1461 1470 1478 1484 1492 1500 1506 1514 1520 1527 1533 1537 1541 1545 1549 1552 1555 1558 1562 1566 1569 1572 1572 1574 1578 1580 1582 1583 1585 1587
1444 1451 1455 1463 1470 1478 1487 1494 1501 1508 1515 1521 1527 1531 1536 1541 1545 1549 1552 1555 1559 1563 1566 1570 1572 1573 1576 1580 1582 1583 1584 1586
1435 1443 1448 1456 1463 1471 1479 1488 1495 1502 1508 1515 1521 1525 1532 1538 1542 1546 1549 1552 1556 1560 1564 1567 1571 1572 1575 1578 1580 1582 1583 1585
1431 1437 1443 1450 1457 1465 1473 1481 1488 1495 1502 1509 1515 1522 1528 1533 1538 1542 1545 1549 1553 1558 1561 1565 1568 1571 1573 1576 1579 1581 1582 1584
1431 1435 1440 1444 1450 1457 1465 1473 1480 1488 1495 1502 1509 1516 1522 1528 1533 1537 1541 1545 1549 1554 1558 1562 1565 1569 1571 1574 1577 1579 1581 1583
1432 1435 1438 1441 1446 1451 1458 1466 1475 1483 1489 1496 1504 1510 1517 1523 1528 1532 1536 1540 1545 1550 1554 1559 1562 1566 1569 1572 1575 1577 1579 1581
1432 1435 1437 1440 1445 1452 1458 1463 1470 1478 1484 1492 1499 1506 1513 1517 1523 1527 1531 1536 1541 1546 1550 1555 1559 1563 1566 1569 1573 1575 1576 1578